Regional Weather Roundup
Issued by NWS

Home | Current Version | Previous Version | Graphics & Text | Print | Product List | Glossary On
Versions: 1 2 3 4 5 6 7 8 9 10 11 12 13 14 15 16 17 18 19 20 21 22 23 24 25 26 27 28 29 30 31 32 33 34 35 36 37 38 39 40 41 42 43 44 45 46 47 48 49 50
000
ASUS43 KBIS 300101
RWRND

NORTH DAKOTA REGIONAL WEATHER ROUNDUP
NATIONAL WEATHER SERVICE BISMARCK ND
800 PM CDT SUN MAR 29 2015

NOTE: "FAIR" INDICATES FEW OR NO CLOUDS BELOW 12,000 FEET WITH NO
SIGNIFICANT WEATHER AND/OR OBSTRUCTIONS TO VISIBILITY.


NDZ001>003-009>011-017-300200-
NORTHWEST NORTH DAKOTA

CITY           SKY/WX    TMP DP  RH WIND       PRES   REMARKS
WILLISTON      MOCLDY    53  35  50 SW6       29.91F
MINOT          CLEAR     48  31  51 NW8       29.92S
MINOT AFB      CLEAR     50  37  59 N6        29.91S
$$

NDZ018>021-031>035-040>046-300200-
SOUTHWEST NORTH DAKOTA

CITY           SKY/WX    TMP DP  RH WIND       PRES   REMARKS
BISMARCK       CLEAR     55  27  34 NW13      29.97S
DICKINSON      PTCLDY    50  30  46 W3        29.95F
GARRISON         N/A     53  33  46 NW9       29.93F
HETTINGER ARPT MOCLDY    52  30  43 W5        30.00F
$$

NDZ004>008-012>016-024-026-027-054-300200-
NORTHEAST NORTH DAKOTA

CITY           SKY/WX    TMP DP  RH WIND       PRES   REMARKS
GRAND FORKS    PTCLDY    48  31  51 W10       29.88S
DEVILS LAKE    PTCLDY    46  32  57 N8        29.91R
$$

NDZ022-023-025-028>030-036>039-047>053-300200-
SOUTHEAST NORTH DAKOTA

CITY           SKY/WX    TMP DP  RH WIND       PRES   REMARKS
FARGO          CLOUDY    50  28  42 NW9       29.91S
JAMESTOWN      PTCLDY    50  29  44 W9        29.93S
$$




USA.gov is the U.S. government's official web portal to all federal, state and local government web resources and services.